星链-31208 (STARLINK-31208 )

导读

STARLINK-31208是美国SpaceX星链互联网卫星星座的一员,于2024年2月25日发射入轨。星链计划旨在构建全球卫星互联网,为全球偏远地区提供高速网络接入服务,该卫星服役已超两年,为星链星座网络覆盖提供支撑,助力实现全球互联的通信目标。

基本信息
目录编号:
59037
目录名称:
STARLINK-31208
国际标识:
2024-038Q
轨道中心:
EARTH
卫星名称:
星链-31208
卫星全名:
星链-31208 (STARLINK-31208 )
卫星状态:
在轨 (已飞行844 天)
发射日期:
2024-02-25 UTC
国别 :
美国 (US)
星等 :
--
轨道信息
数据来源 国际轨道数据 AOE轨道数据
星历时间 2026-06-17T19:28:45+0800
19小时前
查看轨道信息
2026-06-18T04:00:00+0800
10小时前
查看轨道信息
半长轴 6861.188km 6861.184km
偏心率 0.0001008 0.0001039
轨道倾角 42.998° 43.001°
近地点辐角 266.753° 265.577°
升交点赤经 183.940° 181.936°
平近点角 93.321° 249.193°
近地点 482.359km 482.334km
远地点 483.743km 483.76km
周期 94.267分钟 94.267分钟
每日圈数 15.275794 15.27581
详细信息
固有亮度:
5
最大亮度:
0.3
卫星平台:
Starlink v2.0 mini
覆盖范围:
全球
运营商:
太空探索技术公司
运营商所在国:
美国
制造商(研发单位):
太空探索技术公司
制造商所在国:
美国
使用方式:
暂无
卫星简介
星链(Starlink)计划是由太空探索技术公司(SpaceX)提出的一个巨型低轨卫星互联网星座项目,计划在2019年至2024年间在太空搭建由约1.2万颗卫星组成的“星链”网络,其中1584颗将部署在地球上空550千米处的近地轨道,并从2020年开始工作。该卫星仍在工作。
2D轨道图
3D轨道图
轨道高度分析图
轨道倾角分析图
轨道综合分析图
查看轨道综合分析图